QPF
0.00 0.00 0.00 0.00 0.00 0.00 0.00 0.00 0.00 0.00 0.00 0.00 0.00 0.00 0.01 0.02 0.01 0.03 0.07 0.05 0.06 0.10 0.14 0.16 0.17 0.20 0.17 0.14 0.16 0.19 0.21 0.19 0.10 0.01 0.00 0.00 0.03 0.03 0.03 0.01 0.00 0.00 0.00
0.00 0.00 0.00 0.00 0.00 0.00 0.00 0.00 0.00 0.00 0.00 0.00 0.00 0.00 0.00 0.03 0.05 0.07 0.08 0.04 0.01 0.03 0.05 0.13 0.14 0.10 0.10 0.11 0.11 0.16 0.22 0.21 0.19 0.10 0.07 0.06 0.07 0.08 0.08 0.02 0.00 0.00 0.00
0.00 0.00 0.00 0.00 0.00 0.00 0.00 0.00 0.00 0.00 0.00 0.00 0.00 0.00 0.00 0.01 0.05 0.09 0.10 0.05 0.05 0.07 0.06 0.05 0.04 0.02 0.02 0.06 0.06 0.10 0.14 0.15 0.17 0.14 0.05 0.04 0.08 0.11 0.10 0.03 0.01 0.01 0.00
0.00 0.00 0.00 0.00 0.00 0.00 0.00 0.00 0.00 0.00 0.00 0.00 0.00 0.00 0.00 0.00 0.01 0.03 0.04 0.07 0.10 0.12 0.08 0.04 0.05 0.03 0.05 0.04 0.08 0.07 0.09 0.07 0.08 0.07 0.05 0.01 0.01 0.09 0.12 0.05 0.06 0.10 0.02
0.00 0.00 0.00 0.00 0.00 0.00 0.00 0.01 0.02 0.00 0.00 0.00 0.00 0.00 0.00 0.00 0.00 0.00 0.00 0.00 0.01 0.01 0.04 0.03 0.01 0.01 0.02 0.03 0.04 0.07 0.10 0.10 0.08 0.08 0.07 0.11 0.10 0.12 0.12 0.20 0.16 0.08 0.05
0.00 0.00 0.00 0.01 0.00 0.00 0.03 0.05 0.04 0.00 0.00 0.00 0.00 0.00 0.00 0.00 0.00 0.00 0.00 0.00 0.00 0.00 0.00 0.02 0.04 0.04 0.02 0.04 0.04 0.05 0.09 0.10 0.06 0.06 0.07 0.06 0.11 0.11 0.11 0.14 0.14 0.10 0.05
0.00 0.00 0.00 0.00 0.00 0.00 0.04 0.03 0.00 0.00 0.00 0.00 0.00 0.00 0.00 0.00 0.00 0.00 0.00 0.00 0.00 0.00 0.00 0.00 0.00 0.00 0.01 0.02 0.04 0.06 0.04 0.10 0.06 0.08 0.05 0.03 0.08 0.10 0.09 0.09 0.09 0.11 0.07
0.00 0.00 0.00 0.00 0.04 0.01 0.02 0.00 0.00 0.00 0.00 0.00 0.00 0.00 0.00 0.00 0.00 0.00 0.00 0.00 0.00 0.00 0.00 0.00 0.00 0.00 0.00 0.00 0.00 0.00 0.00 0.04 0.08 0.04 0.01 0.01 0.03 0.06 0.08 0.09 0.07 0.07 0.05
0.00 0.01 0.00 0.00 0.00 0.00 0.00 0.00 0.00 0.00 0.00 0.00 0.00 0.00 0.00 0.00 0.00 0.00 0.00 0.00 0.00 0.00 0.00 0.00 0.00 0.00 0.00 0.00 0.00 0.00 0.00 0.00 0.02 0.04 0.01 0.01 0.02 0.04 0.04 0.02 0.04 0.02 0.04
0.02 0.01 0.00 0.00 0.00 0.00 0.00 0.00 0.00 0.00 0.00 0.00 0.00 0.00 0.00 0.00 0.00 0.00 0.00 0.00 0.00 0.00 0.00 0.00 0.00 0.00 0.00 0.00 0.00 0.00 0.00 0.00 0.00 0.00 0.00 0.00 0.00 0.00 0.00 0.00 0.02 0.03 0.02
0.00 0.00 0.00 0.00 0.00 0.00 0.00 0.00 0.00 0.00 0.00 0.00 0.00 0.00 0.00 0.00 0.00 0.00 0.00 0.00 0.00 0.00 0.00 0.00 0.00 0.00 0.00 0.00 0.00 0.00 0.01 0.03 0.01 0.00 0.00 0.00 0.00 0.00 0.00 0.00 0.00 0.03 0.04
0.00 0.00 0.00 0.00 0.00 0.00 0.00 0.00 0.00 0.00 0.00 0.00 0.00 0.00 0.00 0.00 0.00 0.00 0.00 0.00 0.00 0.00 0.00 0.00 0.00 0.00 0.00 0.00 0.00 0.00 0.00 0.00 0.00 0.00 0.00 0.00 0.00 0.00 0.00 0.00 0.00 0.00 0.01
0.00 0.00 0.00 0.00 0.00 0.00 0.00 0.00 0.00 0.00 0.00 0.00 0.00 0.00 0.00 0.00 0.00 0.00 0.00 0.00 0.00 0.00 0.00 0.00 0.00 0.00 0.00 0.00 0.00 0.00 0.00 0.00 0.00 0.01 0.01 0.02 0.01 0.01 0.00 0.00 0.00 0.00 0.00
0.00 0.00 0.00 0.00 0.00 0.00 0.00 0.00 0.00 0.00 0.00 0.00 0.00 0.00 0.00 0.00 0.00 0.00 0.00 0.00 0.00 0.00 0.00 0.00 0.00 0.00 0.00 0.00 0.00 0.00 0.00 0.00 0.00 0.00 0.00 0.01 0.01 0.02 0.01 0.01 0.00 0.00 0.00
0.00 0.00 0.00 0.00 0.00 0.00 0.00 0.00 0.00 0.00 0.00 0.00 0.00 0.00 0.00 0.00 0.00 0.00 0.00 0.00 0.00 0.00 0.00 0.00 0.00 0.00 0.00 0.00 0.00 0.00 0.01 0.02 0.03 0.01 0.00 0.00 0.00 0.00 0.00 0.00 0.00 0.00 0.00
0.00 0.00 0.00 0.00 0.00 0.00 0.00 0.00 0.00 0.00 0.00 0.00 0.00 0.00 0.00 0.00 0.00 0.00 0.00 0.00 0.00 0.00 0.00 0.00 0.00 0.00 0.00 0.00 0.00 0.01 0.01 0.01 0.02 0.02 0.01 0.00 0.00 0.00 0.00 0.00 0.00 0.00 0.00
0.00 0.00 0.00 0.00 0.00 0.00 0.00 0.00 0.00 0.00 0.00 0.00 0.00 0.00 0.00 0.00 0.00 0.00 0.00 0.00 0.00 0.00 0.01 0.01 0.03 0.02 0.01 0.01 0.00 0.01 0.01 0.01 0.03 0.04 0.04 0.04 0.02 0.01 0.01 0.00 0.00 0.01 0.01
0.00 0.00 0.00 0.00 0.00 0.00 0.00 0.00 0.00 0.00 0.00 0.00 0.00 0.00 0.00 0.00 0.00 0.00 0.00 0.00 0.00 0.00 0.00 0.01 0.01 0.02 0.01 0.00 0.00 0.00 0.00 0.00 0.00 0.00 0.01 0.02 0.03 0.04 0.04 0.03 0.02 0.02 0.02
0.00 0.00 0.00 0.00 0.00 0.00 0.00 0.00 0.00 0.00 0.00 0.00 0.00 0.00 0.00 0.00 0.00 0.00 0.00 0.00 0.00 0.00 0.00 0.01 0.01 0.01 0.01 0.01 0.01 0.01 0.01 0.01 0.01 0.01 0.01 0.01 0.02 0.05 0.06 0.04 0.02 0.01 0.00
0.00 0.00 0.00 0.00 0.00 0.00 0.00 0.00 0.00 0.00 0.00 0.00 0.00 0.00 0.00 0.00 0.00 0.00 0.00 0.00 0.00 0.00 0.00 0.00 0.00 0.00 0.00 0.01 0.01 0.02 0.03 0.04 0.04 0.04 0.03 0.02 0.02 0.03 0.03 0.04 0.02 0.01 0.00
0.00 0.00 0.00 0.00 0.00 0.00 0.00 0.00 0.00 0.00 0.00 0.00 0.00 0.00 0.00 0.00 0.00 0.00 0.00 0.00 0.00 0.00 0.00 0.00 0.00 0.00 0.00 0.00 0.01 0.01 0.01 0.02 0.04 0.04 0.04 0.05 0.05 0.05 0.02 0.02 0.02 0.02 0.02
0.00 0.00 0.00 0.00 0.00 0.00 0.00 0.00 0.00 0.00 0.00 0.00 0.00 0.00 0.00 0.00 0.00 0.00 0.00 0.00 0.00 0.00 0.00 0.00 0.01 0.00 0.00 0.00 0.00 0.01 0.01 0.01 0.02 0.06 0.09 0.08 0.06 0.06 0.05 0.03 0.01 0.01 0.01
0.00 0.00 0.00 0.00 0.00 0.00 0.00 0.00 0.00 0.00 0.00 0.00 0.00 0.00 0.00 0.00 0.00 0.00 0.00 0.00 0.00 0.01 0.01 0.01 0.01 0.01 0.01 0.01 0.01 0.01 0.00 0.01 0.03 0.03 0.03 0.03 0.03 0.04 0.04 0.04 0.04 0.03 0.02
0.00 0.00 0.00 0.00 0.00 0.00 0.00 0.00 0.00 0.00 0.00 0.00 0.00 0.00 0.00 0.00 0.00 0.00 0.00 0.00 0.00 0.02 0.03 0.03 0.02 0.02 0.01 0.01 0.00 0.00 0.00 0.01 0.01 0.01 0.01 0.00 0.00 0.01 0.01 0.01 0.01 0.01 0.02
0.00 0.00 0.00 0.00 0.00 0.00 0.00 0.00 0.00 0.00 0.00 0.00 0.00 0.00 0.00 0.00 0.00 0.00 0.00 0.01 0.04 0.05 0.04 0.03 0.03 0.02 0.01 0.01 0.00 0.00 0.01 0.01 0.00 0.00 0.00 0.00 0.00 0.00 0.00 0.00 0.00 0.00 0.01
0.00 0.00 0.00 0.00 0.00 0.00 0.00 0.00 0.00 0.00 0.00 0.00 0.00 0.00 0.00 0.00 0.00 0.00 0.01 0.04 0.07 0.07 0.07 0.05 0.04 0.03 0.03 0.01 0.01 0.01 0.01 0.00 0.00 0.00 0.00 0.00 0.00 0.00 0.00 0.00 0.00 0.00 0.00
MSLP
1012.58 1013.08 1013.37 1013.28 1013.26 1013.21 1013.22 1013.34 1013.46 1013.34 1013.21 1012.85 1012.53 1012.23 1012.03 1011.78 1011.71 1011.89 1012.12 1012.13 1012.15 1012.01 1011.76 1011.63 1011.30 1011.01 1010.82 1010.65 1010.69 1010.76 1010.78 1010.81 1010.30 1008.90 1008.25 1008.55 1009.13 1009.66 1009.25 1008.99 1009.28 1009.14 1008.77
1012.23 1012.81 1013.10 1013.21 1013.21 1012.96 1013.02 1013.14 1013.24 1013.28 1013.20 1013.04 1012.66 1012.26 1011.86 1011.45 1011.48 1011.34 1011.36 1011.51 1011.73 1011.73 1011.74 1011.67 1011.42 1011.17 1010.62 1010.29 1010.43 1010.32 1010.46 1010.33 1010.27 1009.59 1009.01 1008.82 1008.98 1009.10 1009.07 1008.99 1008.71 1007.94 1007.81
1011.80 1012.08 1012.70 1012.84 1012.85 1012.71 1012.73 1013.03 1013.14 1013.18 1013.04 1012.84 1012.71 1012.46 1012.12 1011.60 1011.11 1010.91 1011.07 1010.98 1010.94 1010.95 1010.91 1011.17 1011.04 1011.01 1010.69 1010.35 1009.95 1010.12 1010.15 1010.14 1010.03 1009.89 1009.26 1008.92 1008.53 1009.00 1008.83 1008.48 1008.21 1007.91 1007.58
1011.83 1011.88 1012.48 1012.94 1012.98 1012.83 1012.75 1013.04 1013.10 1013.17 1013.10 1012.97 1012.81 1012.49 1012.22 1011.87 1011.40 1011.21 1010.90 1010.63 1010.38 1010.29 1010.10 1010.24 1010.26 1010.23 1010.24 1010.19 1009.95 1009.88 1009.93 1009.94 1009.76 1009.70 1009.42 1008.87 1008.81 1008.28 1008.66 1008.23 1007.77 1007.54 1007.40
1012.71 1012.47 1012.50 1012.90 1013.20 1013.28 1013.29 1013.36 1013.36 1013.18 1013.05 1012.99 1012.76 1012.50 1012.31 1011.91 1011.22 1011.81 1011.47 1010.74 1010.09 1009.78 1009.59 1009.28 1009.09 1009.32 1009.48 1009.72 1009.77 1009.49 1009.54 1009.35 1009.45 1009.36 1009.06 1008.72 1008.29 1008.20 1008.07 1008.01 1007.86 1007.61 1006.87
1012.70 1012.62 1012.83 1013.04 1013.29 1013.15 1013.20 1013.32 1013.31 1013.12 1013.07 1012.93 1012.66 1012.45 1012.23 1011.75 1011.90 1012.00 1011.89 1010.86 1010.17 1009.66 1009.15 1008.85 1008.65 1008.57 1008.67 1008.84 1008.82 1008.92 1008.85 1008.81 1008.80 1008.77 1008.48 1008.01 1007.99 1007.89 1007.96 1007.98 1007.88 1007.66 1006.89
1012.52 1012.57 1012.79 1012.91 1013.09 1013.20 1013.21 1013.06 1012.95 1013.01 1013.01 1012.75 1012.54 1012.35 1012.06 1011.88 1012.03 1012.13 1011.72 1010.78 1009.96 1009.32 1008.99 1008.65 1008.22 1007.54 1007.64 1007.85 1008.04 1008.21 1008.22 1008.16 1008.19 1007.81 1007.68 1007.23 1007.12 1007.23 1007.75 1007.75 1007.73 1007.71 1007.38
1012.65 1012.75 1012.81 1012.88 1013.00 1012.96 1012.94 1012.85 1012.96 1012.95 1012.81 1012.53 1012.32 1012.17 1012.02 1011.71 1011.81 1011.90 1011.61 1010.56 1009.88 1009.23 1008.82 1008.24 1007.93 1007.78 1007.64 1007.56 1007.45 1007.34 1007.22 1007.17 1007.22 1007.28 1007.16 1006.65 1006.63 1006.96 1007.26 1007.37 1007.66 1007.49 1007.32
1012.73 1012.81 1012.81 1012.97 1012.99 1013.06 1013.06 1013.01 1012.97 1012.82 1012.51 1012.21 1012.00 1011.82 1011.61 1011.49 1011.59 1011.64 1011.51 1010.44 1009.23 1009.01 1008.44 1007.89 1007.72 1007.56 1007.49 1007.61 1007.37 1007.07 1006.71 1006.58 1006.55 1006.66 1006.72 1006.57 1006.70 1006.96 1006.92 1007.30 1007.29 1007.50 1006.96
1013.26 1013.32 1013.47 1013.64 1013.50 1013.45 1013.43 1013.29 1013.14 1012.90 1012.33 1011.82 1011.59 1011.45 1011.15 1011.04 1011.05 1011.35 1011.43 1010.34 1009.24 1008.57 1008.16 1007.54 1007.17 1007.35 1007.91 1008.15 1007.61 1006.86 1006.46 1005.99 1006.02 1006.11 1006.18 1006.26 1006.34 1006.32 1006.52 1006.75 1006.10 1006.26 1006.08
1013.92 1014.09 1014.27 1014.25 1014.12 1013.83 1014.00 1013.79 1013.53 1013.25 1012.84 1012.30 1011.82 1011.30 1011.11 1010.65 1010.67 1011.10 1011.26 1010.86 1009.72 1009.04 1008.34 1007.43 1006.85 1007.92 1007.85 1008.02 1008.08 1007.07 1006.24 1006.32 1006.04 1005.98 1005.69 1005.43 1005.23 1005.57 1005.36 1005.67 1005.76 1005.68 1005.63
1014.59 1014.42 1014.62 1014.77 1014.43 1014.18 1014.17 1013.93 1013.73 1013.33 1012.93 1012.33 1011.74 1011.09 1010.33 1010.44 1010.56 1010.76 1010.95 1010.82 1010.62 1009.69 1008.54 1007.56 1007.08 1007.54 1007.66 1007.57 1007.47 1006.57 1006.51 1006.45 1005.59 1005.21 1005.01 1004.80 1004.68 1004.42 1004.44 1004.68 1005.02 1005.14 1004.94
1014.84 1014.92 1014.82 1014.87 1014.81 1014.45 1014.04 1013.58 1013.31 1012.95 1012.73 1012.39 1011.82 1011.40 1010.95 1010.74 1010.58 1010.95 1011.26 1011.05 1010.34 1009.80 1008.81 1008.08 1008.12 1007.85 1007.48 1006.97 1006.25 1006.25 1006.31 1005.35 1004.84 1004.16 1003.75 1004.22 1004.20 1004.07 1004.13 1004.40 1004.77 1004.85 1004.89
1015.13 1015.19 1015.18 1015.02 1014.98 1014.56 1013.94 1013.58 1013.46 1013.37 1013.47 1013.41 1013.19 1012.92 1012.70 1012.28 1012.10 1012.31 1012.13 1011.51 1010.50 1009.45 1008.66 1008.16 1007.98 1007.49 1006.67 1005.98 1005.65 1004.94 1004.71 1004.31 1003.92 1003.55 1003.27 1003.04 1002.85 1003.46 1003.95 1004.08 1003.78 1003.70 1003.75
1015.47 1015.59 1015.43 1014.76 1014.76 1014.62 1014.25 1014.27 1014.10 1014.25 1014.89 1014.57 1014.38 1014.09 1013.61 1013.42 1013.36 1013.66 1013.38 1012.74 1011.85 1010.85 1010.32 1008.42 1006.88 1005.62 1004.81 1004.19 1003.80 1003.82 1003.78 1003.69 1003.70 1003.48 1003.14 1002.86 1002.65 1002.62 1002.60 1002.61 1002.91 1003.20 1003.17
1015.53 1015.51 1015.39 1015.15 1015.03 1014.78 1014.19 1013.92 1014.25 1014.56 1014.83 1014.87 1015.08 1014.98 1014.67 1014.44 1014.20 1013.71 1013.07 1012.38 1011.47 1010.55 1009.53 1007.48 1006.01 1005.41 1004.99 1004.84 1004.50 1004.26 1004.06 1003.72 1003.41 1003.11 1002.82 1002.60 1002.44 1002.37 1002.30 1002.19 1002.27 1002.26 1002.07
1016.16 1015.79 1015.43 1015.24 1014.95 1014.77 1014.21 1014.06 1013.74 1013.87 1014.28 1014.57 1014.76 1014.84 1014.78 1014.60 1014.09 1013.36 1012.57 1011.63 1010.43 1009.60 1008.51 1007.42 1006.75 1006.02 1005.74 1005.49 1004.80 1004.33 1004.13 1003.68 1003.51 1003.28 1003.11 1002.86 1002.39 1001.93 1001.65 1001.51 1001.37 1001.47 1001.49
1015.96 1016.67 1015.70 1015.24 1015.26 1014.96 1014.48 1014.23 1014.16 1014.22 1013.97 1013.80 1013.78 1014.10 1014.27 1014.19 1013.72 1012.95 1012.18 1010.88 1010.04 1009.47 1008.87 1008.33 1007.71 1007.06 1005.99 1005.81 1005.33 1004.84 1004.49 1004.08 1003.76 1003.54 1003.08 1002.47 1001.99 1001.94 1001.60 1000.95 1000.49 1000.64 1000.78
1016.31 1016.38 1015.75 1015.25 1015.21 1015.19 1014.75 1014.65 1014.73 1014.66 1014.36 1013.83 1013.39 1013.45 1013.79 1014.07 1013.30 1012.64 1012.15 1011.30 1010.98 1010.54 1010.10 1009.46 1008.76 1007.98 1007.14 1006.14 1005.32 1004.89 1004.67 1004.25 1003.70 1003.04 1002.24 1002.23 1001.90 1001.16 1000.87 1000.84 1000.52 1000.84 1000.88
1016.43 1017.27 1016.44 1015.24 1015.01 1014.99 1014.92 1014.84 1014.82 1014.62 1014.22 1014.01 1013.72 1013.87 1013.95 1013.66 1013.01 1012.64 1012.55 1012.29 1011.76 1011.20 1010.59 1009.98 1009.27 1008.61 1007.95 1007.17 1006.39 1005.77 1005.16 1004.49 1003.91 1003.60 1003.15 1002.35 1001.21 1000.63 999.89 1000.19 1000.34 1000.50 1000.51
1015.83 1015.80 1016.37 1015.17 1015.17 1015.27 1015.17 1014.95 1014.78 1014.40 1014.15 1014.04 1013.96 1014.31 1014.87 1014.15 1013.54 1013.13 1012.74 1012.28 1011.81 1011.22 1010.60 1010.01 1009.40 1008.79 1008.13 1007.30 1006.45 1005.69 1005.27 1004.77 1004.25 1003.96 1003.57 1002.79 1001.73 1000.55 999.83 999.79 999.94 999.97 999.91
1015.72 1015.54 1015.48 1015.31 1015.32 1015.28 1015.30 1014.75 1014.50 1014.21 1013.95 1013.76 1013.49 1013.39 1014.21 1013.71 1013.51 1013.12 1012.67 1012.15 1011.62 1011.08 1010.48 1009.78 1009.01 1008.49 1007.97 1007.38 1006.74 1006.00 1005.16 1004.42 1004.07 1003.88 1003.35 1002.68 1002.04 1001.46 1000.78 999.71 999.17 999.29 999.34
1015.65 1015.38 1015.14 1015.03 1015.07 1015.13 1014.60 1014.42 1014.10 1013.95 1013.78 1013.29 1012.83 1012.50 1012.56 1012.64 1012.65 1012.78 1012.48 1011.96 1011.44 1010.81 1010.17 1009.50 1008.72 1007.94 1007.42 1006.92 1006.50 1005.98 1005.27 1004.38 1003.89 1003.68 1003.12 1002.49 1002.10 1001.57 1000.93 1000.38 1000.01 998.90 998.37
1015.35 1015.05 1014.74 1014.45 1014.30 1014.68 1014.16 1014.17 1013.81 1013.60 1013.43 1012.84 1012.43 1012.00 1011.67 1011.73 1011.78 1011.90 1012.43 1012.03 1011.46 1010.79 1010.10 1009.30 1008.52 1007.75 1006.96 1006.31 1005.79 1005.35 1004.87 1004.24 1003.66 1003.39 1003.13 1002.48 1001.74 1001.18 1000.83 1000.16 999.64 999.15 998.63
1014.77 1014.36 1014.15 1014.01 1013.93 1013.81 1013.66 1013.42 1013.28 1013.08 1012.82 1012.41 1011.98 1011.58 1011.16 1011.00 1010.94 1011.00 1011.27 1011.63 1011.20 1010.52 1009.79 1009.11 1008.36 1007.53 1006.66 1005.93 1005.28 1004.69 1004.19 1003.88 1003.47 1003.13 1002.81 1002.23 1001.48 1000.82 1000.29 999.73 998.98 998.47 997.92
1014.04 1013.75 1013.68 1013.54 1013.34 1013.28 1013.16 1013.00 1012.83 1012.56 1012.19 1011.81 1011.59 1011.16 1010.79 1010.56 1010.35 1010.26 1010.19 1010.57 1010.45 1009.88 1009.23 1008.53 1007.78 1007.10 1006.27 1005.25 1004.44 1004.01 1003.43 1002.81 1002.31 1001.83 1001.63 1001.04 1000.38 999.81 999.39 998.76 998.19 997.60 996.94
Thickness
5786 5783 5780 5779 5778 5776 5771 5768 5764 5764 5763 5763 5763 5764 5762 5762 5760 5755 5749 5747 5744 5744 5746 5746 5749 5753 5757 5761 5762 5760 5759 5760 5758 5775 5784 5785 5782 5776 5781 5784 5783 5785 5788
5785 5781 5778 5777 5774 5773 5769 5765 5764 5760 5760 5758 5759 5760 5761 5763 5760 5758 5754 5750 5744 5740 5739 5739 5742 5745 5751 5756 5756 5756 5754 5758 5757 5759 5766 5772 5773 5776 5776 5777 5782 5790 5792
5778 5779 5773 5772 5770 5770 5769 5764 5761 5759 5758 5758 5756 5755 5755 5758 5760 5760 5755 5753 5750 5746 5743 5739 5739 5739 5741 5745 5751 5750 5752 5753 5755 5754 5757 5764 5770 5769 5770 5775 5778 5784 5788
5768 5772 5767 5764 5764 5765 5764 5760 5756 5753 5751 5750 5749 5750 5751 5752 5753 5752 5752 5752 5753 5751 5750 5746 5742 5741 5738 5737 5741 5743 5744 5746 5749 5749 5750 5754 5756 5764 5763 5765 5768 5777 5778
5759 5762 5764 5763 5760 5757 5754 5751 5749 5748 5747 5745 5744 5744 5744 5746 5751 5742 5743 5746 5749 5749 5750 5750 5751 5746 5742 5738 5735 5736 5738 5741 5742 5741 5743 5745 5750 5751 5756 5759 5760 5763 5774
5758 5757 5758 5757 5754 5753 5749 5746 5744 5743 5741 5740 5740 5739 5739 5742 5737 5734 5732 5737 5740 5743 5744 5746 5747 5745 5741 5737 5737 5735 5737 5736 5736 5735 5736 5741 5741 5747 5750 5752 5753 5752 5755
5756 5757 5755 5752 5748 5745 5743 5741 5738 5735 5733 5732 5730 5729 5729 5730 5726 5723 5725 5731 5734 5737 5739 5740 5742 5748 5746 5742 5738 5734 5733 5734 5734 5738 5735 5739 5741 5746 5744 5745 5745 5745 5746
5750 5749 5748 5745 5741 5739 5736 5735 5730 5728 5726 5726 5725 5723 5720 5721 5718 5714 5714 5723 5725 5728 5731 5735 5736 5735 5737 5738 5737 5735 5735 5736 5735 5735 5733 5737 5742 5741 5740 5740 5738 5740 5743
5745 5744 5743 5738 5735 5730 5727 5724 5722 5720 5720 5720 5719 5717 5715 5713 5709 5706 5704 5710 5717 5716 5721 5726 5727 5728 5728 5728 5729 5728 5730 5731 5734 5732 5731 5731 5732 5733 5734 5732 5727 5725 5730
5734 5733 5730 5726 5724 5720 5717 5715 5714 5713 5714 5716 5713 5710 5709 5706 5703 5696 5693 5701 5705 5709 5710 5716 5719 5719 5712 5711 5718 5722 5721 5725 5726 5727 5728 5727 5727 5730 5726 5725 5730 5725 5729
5723 5720 5715 5713 5710 5709 5704 5703 5701 5699 5700 5700 5699 5701 5699 5701 5697 5688 5683 5686 5692 5693 5695 5702 5708 5701 5700 5699 5702 5711 5717 5715 5716 5717 5719 5724 5727 5726 5731 5730 5729 5727 5724
5709 5708 5703 5698 5699 5697 5693 5691 5689 5688 5687 5688 5690 5691 5694 5691 5687 5682 5676 5674 5674 5679 5683 5692 5698 5692 5691 5692 5694 5704 5704 5703 5711 5713 5714 5716 5719 5723 5728 5728 5728 5727 5730
5699 5694 5693 5689 5686 5686 5685 5684 5682 5683 5679 5677 5679 5678 5677 5677 5677 5669 5663 5662 5667 5669 5675 5679 5675 5677 5680 5685 5690 5693 5693 5703 5706 5710 5713 5710 5713 5718 5720 5720 5718 5721 5721
5688 5684 5681 5679 5675 5676 5678 5676 5673 5670 5665 5661 5658 5655 5653 5654 5653 5649 5647 5649 5654 5661 5665 5667 5667 5669 5675 5681 5685 5693 5696 5699 5702 5705 5708 5713 5716 5712 5709 5710 5712 5716 5716
5677 5672 5670 5674 5669 5666 5665 5660 5658 5654 5643 5642 5638 5636 5637 5634 5632 5624 5623 5626 5631 5636 5638 5652 5664 5673 5678 5684 5687 5686 5688 5690 5689 5693 5697 5701 5704 5706 5708 5711 5710 5708 5707
5669 5666 5662 5660 5657 5654 5654 5652 5644 5637 5630 5625 5618 5616 5617 5614 5611 5612 5613 5614 5617 5623 5634 5649 5658 5660 5663 5663 5666 5668 5670 5674 5678 5682 5686 5689 5691 5694 5697 5701 5703 5704 5706
5654 5654 5653 5648 5646 5642 5642 5638 5635 5632 5623 5616 5610 5605 5600 5596 5598 5600 5603 5607 5614 5619 5631 5635 5637 5642 5642 5644 5651 5655 5656 5662 5664 5667 5670 5674 5680 5686 5690 5694 5697 5698 5699
5646 5632 5639 5637 5631 5629 5628 5626 5622 5616 5612 5610 5606 5599 5591 5585 5584 5585 5588 5599 5605 5606 5611 5611 5614 5618 5628 5628 5632 5636 5640 5644 5647 5651 5657 5665 5672 5673 5676 5684 5691 5690 5692
5630 5625 5625 5624 5620 5616 5616 5612 5605 5599 5595 5594 5593 5587 5579 5569 5570 5570 5569 5575 5574 5576 5577 5581 5585 5593 5601 5610 5618 5622 5623 5628 5634 5641 5650 5652 5657 5666 5669 5673 5678 5675 5678
5617 5604 5608 5615 5614 5609 5603 5596 5589 5585 5582 5578 5575 5568 5562 5559 5557 5554 5548 5544 5544 5545 5550 5555 5560 5566 5572 5580 5588 5594 5601 5609 5616 5620 5625 5636 5649 5656 5665 5662 5664 5665 5668
5613 5609 5599 5605 5599 5592 5586 5582 5579 5576 5572 5567 5561 5551 5536 5538 5537 5533 5530 5528 5528 5529 5531 5534 5539 5544 5550 5558 5567 5576 5581 5587 5593 5598 5603 5612 5626 5639 5650 5652 5653 5656 5659
5604 5600 5595 5591 5585 5581 5575 5576 5572 5568 5565 5560 5556 5548 5530 5528 5520 5514 5511 5511 5512 5513 5517 5521 5526 5530 5534 5540 5547 5555 5564 5572 5575 5579 5586 5596 5604 5612 5621 5635 5643 5644 5647
5594 5590 5587 5584 5579 5573 5574 5570 5567 5562 5556 5554 5551 5545 5535 5524 5514 5504 5499 5499 5500 5502 5505 5509 5515 5520 5524 5530 5534 5539 5547 5556 5562 5566 5574 5582 5587 5594 5603 5612 5616 5630 5637
5586 5584 5582 5581 5578 5568 5569 5563 5561 5555 5551 5548 5543 5538 5531 5520 5511 5504 5493 5492 5494 5495 5498 5501 5506 5511 5516 5521 5526 5532 5537 5545 5552 5557 5561 5569 5578 5584 5589 5600 5607 5613 5619
5583 5581 5579 5576 5572 5569 5566 5563 5558 5553 5548 5544 5539 5533 5527 5519 5512 5505 5499 5491 5491 5492 5495 5498 5502 5507 5513 5518 5523 5529 5535 5539 5544 5548 5553 5560 5568 5575 5582 5590 5599 5605 5611
5581 5579 5576 5574 5571 5567 5564 5560 5555 5551 5547 5543 5536 5532 5525 5518 5512 5507 5504 5496 5492 5493 5495 5498 5502 5507 5513 5520 5526 5530 5535 5541 5546 5551 5554 5561 5567 5572 5577 5584 5590 5598 5606